�N����,����,�~����,�C��,���x,�C��,����,���ϕ���,�ő�u�ԕ���,�ő厞����,���˗�,�I�_���x,�n�����x,�ő啗���N��,DTYPE
"23/09/03","00:10",0.0,25.4,84.1,1006.9,346.6,1.0,2.5,329.5,0.00,22.6,25.6,"00:00:40",1
"23/09/03","00:20",0.0,25.2,84.6,1007.1,345.6,1.0,1.7,340.4,0.00,22.5,25.9,"00:18:16",1
"23/09/03","00:30",0.0,25.0,85.1,1006.7,341.9,1.3,2.9,341.8,0.00,22.4,25.6,"00:24:48",1
"23/09/03","00:40",0.0,25.0,85.3,1006.7,336.3,1.2,2.7,324.9,0.00,22.4,25.9,"00:33:52",1
"23/09/03","00:50",0.0,24.9,85.5,1006.4,332.2,1.1,1.8,340.8,0.00,22.3,25.6,"00:40:40",1
"23/09/03","01:00",0.0,24.9,85.7,1006.7,333.1,1.3,3.1,331.4,0.00,22.4,25.6,"00:55:44",1
"23/09/03","01:10",0.0,24.9,85.5,1006.4,329.3,1.5,2.8,321.6,0.00,22.3,25.7,"01:02:56",1
"23/09/03","01:20",0.0,24.9,85.3,1006.4,304.9,0.8,1.7,340.8,0.00,22.3,25.7,"01:11:04",1
"23/09/03","01:30",0.0,24.8,85.3,1006.0,310.4,1.0,1.8,300.4,0.00,22.2,25.4,"01:28:00",1
"23/09/03","01:40",0.0,24.7,85.2,1006.2,333.3,1.7,2.7,302.3,0.00,22.1,25.4,"01:35:28",1
"23/09/03","01:50",0.0,24.8,84.9,1006.2,327.4,1.6,2.7,344.8,0.00,22.1,25.7,"01:40:48",1
"23/09/03","02:00",0.0,24.8,84.7,1006.4,317.9,1.5,2.6,290.4,0.00,22.1,25.6,"01:55:20",1
"23/09/03","02:10",0.0,24.7,84.7,1006.7,341.6,1.2,2.5,340.4,0.00,22.0,25.4,"02:03:28",1
"23/09/03","02:20",0.0,24.6,85.0,1006.4,346.7,1.5,2.8,342.3,0.00,22.0,25.3,"02:15:36",1
"23/09/03","02:30",0.0,24.5,85.2,1006.4,344.4,1.5,2.9,338.3,0.00,21.9,25.5,"02:20:16",1
"23/09/03","02:40",0.0,24.4,85.4,1006.2,342.9,1.8,3.4,339.5,0.00,21.8,25.3,"02:36:16",1
"23/09/03","02:50",0.0,24.3,85.7,1006.7,342.4,1.6,2.8,351.2,0.00,21.8,25.3,"02:41:20",1
"23/09/03","03:00",0.0,24.3,86.0,1006.4,336.8,1.7,3.4,339.0,0.00,21.8,25.3,"02:52:16",1
"23/09/03","03:10",0.0,24.1,86.3,1006.9,338.9,1.7,3.2,344.1,0.00,21.7,25.5,"03:02:00",1
"23/09/03","03:20",0.0,24.0,86.7,1006.9,310.3,1.6,2.9,327.3,0.00,21.7,25.4,"03:13:12",1
"23/09/03","03:30",0.0,24.0,86.8,1006.7,320.7,1.6,2.8,297.7,0.00,21.7,25.3,"03:28:48",1
"23/09/03","03:40",0.0,24.0,86.6,1006.9,330.2,1.6,3.1,341.8,0.00,21.7,25.3,"03:38:00",1
"23/09/03","03:50",0.0,23.9,86.3,1006.9,314.8,1.1,2.6,338.2,0.00,21.5,25.3,"03:41:36",1
"23/09/03","04:00",0.0,23.9,86.1,1006.7,303.1,0.7,1.8,310.3,0.00,21.5,25.3,"03:54:16",1
"23/09/03","04:10",0.0,23.9,85.9,1007.1,330.1,0.6,2.1,340.3,0.00,21.4,25.2,"04:03:12",1
"23/09/03","04:20",0.0,23.7,86.2,1007.1,338.1,0.6,1.4,337.2,0.00,21.3,25.3,"04:19:28",1
"23/09/03","04:30",0.0,23.6,86.6,1007.4,335.1,1.5,2.4,320.9,0.00,21.3,25.2,"04:28:48",1
"23/09/03","04:40",0.0,23.7,87.1,1007.4,336.1,1.6,2.9,347.0,0.00,21.5,25.3,"04:30:08",1
"23/09/03","04:50",0.0,23.6,87.6,1007.6,334.5,1.5,2.7,325.3,0.00,21.5,25.3,"04:48:40",1
"23/09/03","05:00",0.0,23.4,88.0,1007.1,329.5,1.2,2.2,326.0,0.00,21.3,25.2,"04:51:12",1
"23/09/03","05:10",0.0,23.3,88.4,1007.6,337.8,1.5,2.5,351.4,0.00,21.3,25.1,"05:08:32",1
"23/09/03","05:20",0.0,23.5,88.7,1007.4,336.2,2.1,3.3,329.7,0.00,21.6,24.9,"05:15:36",1
"23/09/03","05:30",0.0,23.8,88.5,1007.4,333.8,2.5,4.1,335.0,0.00,21.8,25.2,"05:26:16",1
"23/09/03","05:40",0.0,23.7,88.4,1007.4,334.1,1.7,2.5,341.1,0.00,21.7,25.1,"05:32:08",1
"23/09/03","05:50",0.0,23.6,88.1,1007.4,338.2,2.0,3.2,343.8,0.00,21.6,25.2,"05:41:04",1
"23/09/03","06:00",0.0,23.6,87.9,1007.6,340.0,1.8,2.9,349.9,0.00,21.5,25.2,"05:57:36",1
"23/09/03","06:10",0.0,23.5,87.8,1007.6,342.7,1.7,2.9,352.3,0.00,21.4,25.2,"06:01:28",1
"23/09/03","06:20",0.0,23.9,87.4,1007.6,345.1,1.7,4.7,335.5,0.00,21.7,25.1,"06:19:44",1
"23/09/03","06:30",0.0,24.1,87.2,1007.4,335.3,2.0,3.2,342.2,0.00,21.9,25.0,"06:23:04",1
"23/09/03","06:40",0.0,24.5,87.2,1007.4,333.2,2.1,4.4,325.5,0.02,22.3,25.1,"06:31:20",1
"23/09/03","06:50",0.0,24.9,86.8,1007.1,332.2,2.0,4.1,339.0,0.04,22.6,25.1,"06:45:44",1
"23/09/03","07:00",0.0,25.3,86.2,1007.4,333.7,2.5,4.9,331.3,0.06,22.9,25.0,"06:54:32",1
"23/09/03","07:10",0.0,25.9,85.2,1007.4,339.0,1.7,3.6,334.4,0.09,23.3,25.0,"07:00:56",1
"23/09/03","07:20",0.0,26.7,83.2,1007.4,6.8,1.0,2.0,351.5,0.11,23.7,25.0,"07:14:56",1
"23/09/03","07:30",0.0,27.7,80.4,1006.9,358.9,1.0,1.9,0.9,0.13,24.1,25.0,"07:23:12",1
"23/09/03","07:40",0.0,28.5,77.3,1006.9,19.6,1.0,1.9,45.8,0.15,24.2,25.0,"07:35:36",1
"23/09/03","07:50",0.0,29.4,74.7,1006.4,15.9,0.6,1.3,3.4,0.18,24.5,25.0,"07:41:12",1
"23/09/03","08:00",0.0,29.9,71.8,1006.9,80.1,0.5,1.6,12.8,0.20,24.3,25.1,"07:59:20",1
"23/09/03","08:10",0.0,30.4,69.8,1007.6,85.9,0.6,1.4,353.9,0.22,24.3,25.2,"08:01:04",1
"23/09/03","08:20",0.0,30.8,68.0,1007.8,59.0,0.5,1.9,9.1,0.25,24.2,25.2,"08:18:24",1
"23/09/03","08:30",0.0,31.2,66.5,1007.8,88.9,0.5,1.3,21.7,0.27,24.3,25.2,"08:23:44",1
"23/09/03","08:40",0.0,31.1,65.2,1008.6,243.9,0.3,1.0,227.5,0.28,23.8,25.2,"08:35:04",1
"23/09/03","08:50",0.0,31.4,62.6,1008.8,51.5,0.5,1.3,56.9,0.28,23.4,25.3,"08:41:04",1
"23/09/03","09:00",0.0,31.2,63.1,1008.6,9.6,0.3,1.0,337.3,0.20,23.4,25.2,"08:51:36",1
"23/09/03","09:10",0.0,31.4,62.3,1008.3,338.2,0.6,1.3,344.7,0.36,23.4,25.4,"09:07:44",1
"23/09/03","09:20",0.0,31.7,61.9,1008.8,304.3,0.8,2.4,335.1,0.37,23.5,25.2,"09:15:04",1
"23/09/03","09:30",0.0,32.4,63.2,1009.0,127.5,0.7,1.8,32.8,0.39,24.5,25.3,"09:27:44",1
"23/09/03","09:40",0.0,32.4,58.8,1009.0,228.9,0.6,1.6,186.8,0.40,23.3,25.4,"09:32:48",1
"23/09/03","09:50",0.0,32.5,58.8,1008.8,322.2,1.0,2.2,352.0,0.42,23.4,25.6,"09:45:28",1
"23/09/03","10:00",0.0,33.0,58.9,1009.3,214.5,0.7,2.5,211.9,0.43,23.9,25.2,"09:58:40",1
"23/09/03","10:10",0.0,33.2,58.5,1009.3,188.5,1.1,2.4,98.1,0.44,24.0,25.7,"10:00:02",1
"23/09/03","10:20",0.0,33.5,57.4,1009.0,152.6,1.1,2.8,167.6,0.42,24.0,25.7,"10:15:12",1
"23/09/03","10:30",0.0,33.0,56.0,1008.6,219.4,1.6,4.1,237.0,0.41,23.1,25.7,"10:29:04",1
"23/09/03","10:40",0.0,33.2,54.7,1008.6,268.3,1.3,4.2,228.5,0.49,22.9,25.9,"10:32:32",1
"23/09/03","10:50",0.0,33.8,55.0,1008.6,162.2,1.2,5.1,52.4,0.48,23.5,25.9,"10:46:32",1
"23/09/03","11:00",0.0,34.4,53.5,1008.8,170.6,0.8,2.6,241.9,0.50,23.6,25.9,"10:58:40",1
"23/09/03","11:10",0.0,34.3,52.2,1008.8,195.9,1.5,4.8,215.6,0.51,23.1,25.9,"11:05:52",1
"23/09/03","11:20",0.0,34.6,53.6,1008.3,152.3,1.2,2.9,137.8,0.50,23.8,26.0,"11:17:12",1
"23/09/03","11:30",0.0,34.2,50.7,1009.0,229.0,1.7,4.1,228.0,0.51,22.6,26.3,"11:26:24",1
"23/09/03","11:40",0.0,34.2,49.2,1008.1,199.1,2.0,3.9,211.8,0.51,22.1,26.0,"11:39:44",1
"23/09/03","11:50",0.0,34.3,49.0,1007.6,245.5,2.1,4.4,214.7,0.51,22.1,26.5,"11:47:12",1
"23/09/03","12:00",0.0,34.8,47.7,1007.4,230.0,1.2,4.2,227.0,0.51,22.1,26.6,"11:50:32",1
"23/09/03","12:10",0.0,35.1,48.7,1007.6,237.2,1.6,4.8,234.0,0.52,22.7,26.4,"12:00:56",1
"23/09/03","12:20",0.0,35.5,48.0,1007.6,223.0,1.1,3.1,217.8,0.52,22.8,26.8,"12:19:36",1
"23/09/03","12:30",0.0,35.1,48.6,1007.6,175.7,1.0,3.2,215.7,0.31,22.7,26.7,"12:22:00",1
"23/09/03","12:40",0.0,36.0,45.6,1007.4,146.9,0.6,1.7,117.2,0.50,22.5,26.8,"12:31:52",1
"23/09/03","12:50",0.0,35.8,41.9,1007.4,152.2,1.3,2.6,188.8,0.48,20.9,26.8,"12:41:52",1
"23/09/03","13:00",0.0,36.1,41.4,1007.1,141.8,1.0,3.9,117.0,0.51,21.0,27.1,"12:54:08",1
"23/09/03","13:10",0.0,36.2,46.6,1007.4,163.2,1.5,2.7,161.6,0.50,23.0,27.1,"13:07:12",1
"23/09/03","13:20",0.0,36.5,43.8,1007.6,118.9,1.0,3.2,145.7,0.47,22.2,27.1,"13:17:20",1
"23/09/03","13:30",0.0,36.4,39.9,1007.4,168.6,1.1,2.9,126.8,0.48,20.6,27.3,"13:26:56",1
"23/09/03","13:40",0.0,36.2,43.9,1007.1,132.9,1.5,3.4,134.4,0.46,22.0,27.0,"13:39:04",1
"23/09/03","13:50",0.0,36.1,42.7,1007.1,142.3,1.2,4.9,127.3,0.44,21.5,27.1,"13:47:52",1
"23/09/03","14:00",0.0,36.4,40.0,1006.9,10.3,0.8,2.5,13.6,0.29,20.7,27.2,"13:52:24",1
"23/09/03","14:10",0.0,36.2,42.2,1006.4,124.4,0.8,1.7,128.7,0.35,21.4,27.5,"14:02:16",1
"23/09/03","14:20",0.0,36.7,42.7,1006.4,25.4,1.2,2.5,8.3,0.40,22.0,27.4,"14:11:28",1
"23/09/03","14:30",0.0,36.8,40.7,1006.4,103.4,1.0,2.5,3.4,0.38,21.3,27.4,"14:25:12",1
"23/09/03","14:40",0.0,36.9,37.2,1006.4,83.0,0.8,2.5,40.7,0.36,19.9,27.7,"14:31:04",1
"23/09/03","14:50",0.0,36.8,41.8,1006.7,165.2,0.8,1.4,118.0,0.34,21.7,27.7,"14:44:08",1
"23/09/03","15:00",0.0,37.5,39.8,1006.9,192.8,0.5,1.4,294.1,0.33,21.6,27.5,"14:58:40",1
"23/09/03","15:10",0.0,37.2,38.5,1006.4,273.6,1.0,2.2,225.0,0.31,20.8,27.7,"15:02:16",1
"23/09/03","15:20",0.0,37.0,38.5,1006.2,297.2,1.1,2.9,226.9,0.29,20.6,27.6,"15:16:24",1
"23/09/03","15:30",0.0,36.8,41.2,1006.4,172.0,0.7,2.1,184.2,0.26,21.5,27.5,"15:27:52",1
"23/09/03","15:40",0.0,36.8,39.9,1006.2,178.9,0.8,2.9,226.1,0.24,21.0,27.7,"15:30:48",1
"23/09/03","15:50",0.0,36.6,39.6,1006.2,224.7,1.2,3.9,234.9,0.22,20.7,27.5,"15:46:48",1
"23/09/03","16:00",0.0,36.0,40.1,1005.7,227.6,2.6,5.4,228.0,0.21,20.4,27.7,"15:51:28",1
"23/09/03","16:10",0.0,35.9,41.0,1005.7,250.4,1.0,3.5,220.7,0.14,20.6,27.6,"16:00:16",1
"23/09/03","16:20",0.0,36.7,39.6,1005.5,288.0,0.7,2.2,234.6,0.18,20.8,27.9,"16:11:52",1
"23/09/03","16:30",0.0,36.5,40.8,1006.0,230.1,1.2,3.3,213.3,0.15,21.1,27.8,"16:27:52",1
"23/09/03","16:40",0.0,36.0,42.5,1005.5,190.0,1.1,2.6,228.1,0.12,21.3,27.8,"16:30:16",1
"23/09/03","16:50",0.0,35.7,44.9,1005.5,184.9,0.8,2.0,221.7,0.08,21.9,27.8,"16:42:40",1
"23/09/03","17:00",0.0,35.1,44.3,1005.0,106.5,0.8,1.9,84.6,0.06,21.2,27.6,"16:56:56",1
"23/09/03","17:10",0.0,34.6,46.0,1005.0,57.7,0.7,2.9,107.8,0.03,21.3,27.8,"17:02:16",1
"23/09/03","17:20",0.0,34.2,48.3,1004.8,46.8,0.5,1.3,43.8,0.03,21.8,27.8,"17:16:48",1
"23/09/03","17:30",0.0,34.1,47.6,1004.8,26.2,0.7,2.4,9.7,0.02,21.4,27.5,"17:22:40",1
"23/09/03","17:40",0.0,33.8,49.3,1004.3,13.1,1.3,2.6,23.0,0.01,21.7,27.6,"17:36:48",1
"23/09/03","17:50",0.0,32.6,53.1,1004.3,355.0,1.5,3.1,37.7,0.00,21.8,27.6,"17:42:32",1
"23/09/03","18:00",0.0,31.6,55.6,1003.6,347.9,1.8,4.1,338.2,0.00,21.7,27.5,"17:58:16",1
"23/09/03","18:10",0.0,31.1,57.8,1003.6,358.0,1.3,2.9,349.6,0.00,21.8,27.5,"18:00:48",1
"23/09/03","18:20",0.0,30.7,59.8,1003.1,359.2,1.6,5.1,354.3,0.00,22.0,27.6,"18:15:04",1
"23/09/03","18:30",0.0,30.2,61.7,1003.4,349.8,1.6,2.8,0.3,0.00,22.1,27.6,"18:21:12",1
"23/09/03","18:40",0.0,29.9,63.0,1002.9,347.3,2.1,4.0,337.8,0.00,22.1,27.2,"18:30:56",1
"23/09/03","18:50",0.0,29.5,64.1,1002.9,344.8,1.7,4.0,356.6,0.00,22.0,27.4,"18:45:04",1
"23/09/03","19:00",0.0,29.2,65.0,1002.9,340.8,1.7,3.7,350.3,0.00,22.0,27.4,"18:57:12",1
"23/09/03","19:10",0.0,29.0,65.9,1003.6,337.5,2.0,4.2,331.2,0.00,22.0,27.2,"19:00:32",1
"23/09/03","19:20",0.0,28.8,66.3,1003.6,343.1,1.7,4.1,351.2,0.00,21.9,27.3,"19:10:08",1
"23/09/03","19:30",0.0,28.6,66.9,1003.8,344.3,1.7,3.7,359.0,0.00,21.9,27.2,"19:27:20",1
"23/09/03","19:40",0.0,28.4,67.5,1004.1,338.6,1.7,3.5,350.4,0.00,21.8,27.0,"19:32:00",1
"23/09/03","19:50",0.0,28.3,68.1,1004.8,326.5,1.3,3.3,354.9,0.00,21.9,27.1,"19:42:16",1
"23/09/03","20:00",0.0,28.0,68.7,1004.5,316.8,1.0,1.9,302.8,0.00,21.8,27.0,"19:55:20",1
"23/09/03","20:10",0.0,27.8,69.3,1004.8,296.6,0.7,2.1,349.0,0.00,21.7,27.0,"20:01:44",1
"23/09/03","20:20",0.0,27.5,69.9,1004.5,343.1,0.8,2.7,349.0,0.00,21.6,26.8,"20:18:00",1
"23/09/03","20:30",0.0,27.7,70.2,1004.3,351.9,1.5,2.5,353.3,0.00,21.8,26.9,"20:22:24",1
"23/09/03","20:40",0.0,27.4,70.9,1004.8,348.5,1.0,2.1,341.3,0.00,21.7,27.1,"20:30:24",1
"23/09/03","20:50",0.0,27.2,72.1,1004.8,342.7,0.8,1.7,344.3,0.00,21.8,26.7,"20:49:20",1
"23/09/03","21:00",0.0,26.5,74.6,1005.0,342.6,1.2,2.0,343.4,0.00,21.7,26.7,"20:54:32",1
"23/09/03","21:10",0.0,26.3,75.9,1005.0,338.4,1.5,2.2,334.0,0.00,21.7,26.7,"21:07:04",1
"23/09/03","21:20",0.0,26.2,76.6,1004.8,326.1,0.8,1.8,327.0,0.00,21.8,26.7,"21:19:52",1
"23/09/03","21:30",0.0,26.2,77.0,1004.8,332.5,1.1,2.7,334.4,0.00,21.9,26.5,"21:25:44",1
"23/09/03","21:40",0.0,26.1,77.6,1005.0,342.8,1.3,2.2,343.4,0.00,21.9,26.8,"21:38:40",1
"23/09/03","21:50",0.0,26.0,78.4,1005.2,338.5,1.3,2.1,350.6,0.00,22.0,26.5,"21:42:00",1
"23/09/03","22:00",0.0,25.9,78.8,1005.0,325.2,1.1,3.2,334.6,0.00,22.0,26.5,"21:58:56",1
"23/09/03","22:10",0.0,26.0,78.3,1005.0,334.8,1.5,3.2,356.5,0.00,22.0,26.5,"22:04:48",1
"23/09/03","22:20",0.0,26.0,78.2,1005.0,338.7,1.3,2.0,344.7,0.00,21.9,26.4,"22:12:24",1
"23/09/03","22:30",0.0,26.0,78.4,1005.2,319.1,1.5,3.2,328.3,0.00,22.0,26.4,"22:29:20",1
"23/09/03","22:40",0.0,26.1,78.3,1005.2,337.1,2.1,3.4,339.7,0.00,22.1,26.2,"22:33:36",1
"23/09/03","22:50",0.0,26.0,78.4,1005.2,343.3,1.6,2.9,352.1,0.00,22.0,26.3,"22:43:12",1
"23/09/03","23:00",0.0,25.7,79.2,1004.8,343.3,1.3,3.3,345.2,0.00,21.9,26.6,"22:56:32",1
"23/09/03","23:10",0.0,25.8,79.3,1004.8,346.9,2.2,5.2,342.2,0.00,22.0,26.5,"23:08:16",1
"23/09/03","23:20",0.0,25.8,78.9,1004.8,346.8,2.0,4.0,345.1,0.00,21.9,26.2,"23:14:32",1
"23/09/03","23:30",0.0,25.8,79.0,1004.3,337.6,2.5,4.8,340.3,0.00,21.9,26.3,"23:26:00",1
"23/09/03","23:40",0.0,25.8,79.1,1004.1,339.2,2.7,5.0,339.2,0.00,21.9,26.2,"23:34:08",1
"23/09/03","23:50",0.0,25.6,79.3,1004.3,342.7,2.2,4.1,349.0,0.00,21.8,26.2,"23:41:20",1
"23/09/03","24:00",0.0,25.7,79.2,1004.3,333.1,2.0,4.0,314.8,0.00,21.9,26.2,"23:50:24",1
